�������l�o���
Date,Time,MP-1(��Sv/h),MP-2(��Sv/h),MP-3(��Sv/h),MP-4(��Sv/h),MP-5(��Sv/h),MP-6(��Sv/h),MP-7(��Sv/h),����,����(m/s),���J
2019/06/23,00:00,0.188,0.169,0.283,0.266,0.263,0.141,0.087,�k,5.6,��
2019/06/23,00:10,0.186,0.169,0.285,0.265,0.266,0.141,0.088,�k,5.2,��
2019/06/23,00:20,0.187,0.168,0.282,0.267,0.264,0.141,0.088,�k,5.0,�L
2019/06/23,00:30,0.187,0.170,0.284,0.266,0.264,0.142,0.088,�k,6.4,�L
2019/06/23,00:40,0.188,0.169,0.283,0.266,0.265,0.140,0.088,�k,6.2,��
2019/06/23,00:50,0.188,0.170,0.284,0.266,0.262,0.140,0.088,�k�k��,5.9,��
2019/06/23,01:00,0.186,0.169,0.283,0.264,0.266,0.141,0.088,�k�k��,6.2,�L
2019/06/23,01:10,0.189,0.169,0.283,0.267,0.263,0.141,0.087,�k�k��,5.6,�L
2019/06/23,01:20,0.187,0.169,0.284,0.265,0.265,0.141,0.088,�k,7.4,�L
2019/06/23,01:30,0.186,0.167,0.282,0.264,0.265,0.140,0.088,�k,8.4,�L
2019/06/23,01:40,0.188,0.169,0.282,0.265,0.263,0.142,0.088,�k,7.3,�L
2019/06/23,01:50,0.187,0.168,0.281,0.264,0.265,0.140,0.087,�k,7.9,�L
2019/06/23,02:00,0.186,0.170,0.282,0.265,0.262,0.140,0.088,�k�k��,7.1,�L
2019/06/23,02:10,0.186,0.168,0.282,0.263,0.266,0.141,0.088,�k�k��,5.9,�L
2019/06/23,02:20,0.188,0.169,0.281,0.266,0.262,0.139,0.088,�k�k��,6.4,��
2019/06/23,02:30,0.186,0.167,0.281,0.263,0.264,0.141,0.088,�k�k��,8.2,��
2019/06/23,02:40,0.187,0.168,0.283,0.265,0.263,0.140,0.087,�k�k��,7.6,��
2019/06/23,02:50,0.186,0.167,0.280,0.263,0.265,0.139,0.088,�k��,7.9,��
2019/06/23,03:00,0.186,0.169,0.282,0.264,0.265,0.140,0.087,�k�k��,8.1,��
2019/06/23,03:10,0.185,0.168,0.281,0.265,0.264,0.141,0.087,�k��,8.1,��
2019/06/23,03:20,0.186,0.169,0.281,0.263,0.265,0.141,0.087,�k�k��,8.7,��
2019/06/23,03:30,0.187,0.168,0.282,0.266,0.261,0.139,0.087,�k�k��,8.2,��
2019/06/23,03:40,0.187,0.169,0.280,0.263,0.266,0.140,0.087,�k�k��,7.8,��
2019/06/23,03:50,0.187,0.168,0.282,0.264,0.263,0.140,0.087,�k�k��,8.1,��
2019/06/23,04:00,0.186,0.168,0.281,0.263,0.263,0.140,0.087,�k�k��,9.5,��
2019/06/23,04:10,0.186,0.168,0.282,0.265,0.263,0.141,0.086,�k�k��,8.1,��
2019/06/23,04:20,0.186,0.169,0.281,0.264,0.264,0.140,0.087,�k�k��,8.4,��
2019/06/23,04:30,0.186,0.168,0.282,0.263,0.264,0.140,0.087,�k�k��,6.2,��
2019/06/23,04:40,0.186,0.168,0.280,0.266,0.263,0.139,0.087,�k�k��,7.9,��
2019/06/23,04:50,0.187,0.169,0.282,0.263,0.265,0.140,0.087,�k�k��,7.4,�L
2019/06/23,05:00,0.187,0.169,0.280,0.264,0.262,0.140,0.087,�k�k��,6.8,�L
2019/06/23,05:10,0.189,0.168,0.284,0.263,0.264,0.140,0.087,�k�k��,6.7,��
2019/06/23,05:20,0.186,0.169,0.281,0.265,0.263,0.141,0.088,�k�k��,6.3,��
2019/06/23,05:30,0.187,0.169,0.283,0.262,0.264,0.139,0.086,�k�k��,6.2,��
2019/06/23,05:40,0.187,0.169,0.281,0.265,0.264,0.141,0.087,�k�k��,6.2,�L
2019/06/23,05:50,0.186,0.169,0.283,0.263,0.263,0.140,0.087,�k�k��,5.3,�L
2019/06/23,06:00,0.187,0.168,0.281,0.265,0.264,0.140,0.087,�k,6.4,�L
2019/06/23,06:10,0.186,0.168,0.281,0.264,0.264,0.140,0.087,�k�k��,8.1,�L
2019/06/23,06:20,0.187,0.168,0.281,0.264,0.263,0.140,0.087,�k�k��,7.1,�L
2019/06/23,06:30,0.186,0.168,0.281,0.263,0.262,0.141,0.087,�k�k��,7.0,��
2019/06/23,06:40,0.187,0.168,0.282,0.262,0.265,0.139,0.087,�k�k��,7.8,��
2019/06/23,06:50,0.187,0.168,0.281,0.265,0.261,0.141,0.088,�k�k��,7.3,��
2019/06/23,07:00,0.187,0.168,0.283,0.261,0.265,0.140,0.087,�k�k��,5.9,��
2019/06/23,07:10,0.186,0.168,0.280,0.264,0.262,0.140,0.088,�k�k��,6.5,��
2019/06/23,07:20,0.188,0.167,0.281,0.263,0.264,0.140,0.087,�k�k��,6.5,��
2019/06/23,07:30,0.187,0.169,0.279,0.264,0.262,0.140,0.087,�k�k��,6.4,��
2019/06/23,07:40,0.187,0.168,0.283,0.264,0.262,0.140,0.088,�k�k��,6.2,��
2019/06/23,07:50,0.187,0.169,0.281,0.261,0.264,0.140,0.088,�k�k��,6.3,��
2019/06/23,08:00,0.185,0.168,0.282,0.265,0.262,0.139,0.088,�k�k��,6.0,��
2019/06/23,08:10,0.187,0.168,0.281,0.262,0.264,0.141,0.087,�k,6.4,��
2019/06/23,08:20,0.186,0.169,0.280,0.265,0.264,0.139,0.087,�k,5.9,��
2019/06/23,08:30,0.186,0.167,0.282,0.263,0.261,0.140,0.087,�k�k��,5.4,��
2019/06/23,08:40,0.187,0.169,0.281,0.263,0.264,0.140,0.087,�k�k��,5.7,��
2019/06/23,08:50,0.186,0.167,0.281,0.265,0.264,0.138,0.088,�k�k��,6.6,��
2019/06/23,09:00,0.188,0.167,0.282,0.263,0.263,0.140,0.087,�k�k��,5.6,��
2019/06/23,09:10,0.186,0.169,0.281,0.264,0.266,0.140,0.086,�k�k��,4.3,��
2019/06/23,09:20,0.186,0.168,0.283,0.264,0.262,0.139,0.086,�k,4.6,��
2019/06/23,09:30,0.187,0.168,0.282,0.261,0.261,0.140,0.087,�k,5.2,��
2019/06/23,09:40,0.186,0.169,0.280,0.262,0.264,0.140,0.088,�k�k��,4.8,�L
2019/06/23,09:50,0.187,0.168,0.284,0.264,0.266,0.140,0.087,�k�k��,3.7,��
2019/06/23,10:00,0.187,0.170,0.279,0.262,0.264,0.139,0.088,�k,3.9,�L
2019/06/23,10:10,0.187,0.168,0.283,0.263,0.264,0.141,0.088,�k,4.6,�L
2019/06/23,10:20,0.188,0.169,0.284,0.265,0.265,0.141,0.088,�k,4.0,��
2019/06/23,10:30,0.186,0.169,0.279,0.263,0.262,0.140,0.088,�k,4.9,��
2019/06/23,10:40,0.187,0.167,0.284,0.266,0.266,0.141,0.087,�k,5.1,��
2019/06/23,10:50,0.188,0.169,0.282,0.265,0.266,0.140,0.088,�k,5.1,��
2019/06/23,11:00,0.187,0.169,0.282,0.261,0.263,0.140,0.088,�k,5.4,��
2019/06/23,11:10,0.188,0.168,0.282,0.267,0.263,0.141,0.087,�k,6.8,��
2019/06/23,11:20,0.186,0.170,0.280,0.265,0.266,0.139,0.087,�k,6.8,��
2019/06/23,11:30,0.187,0.168,0.283,0.262,0.263,0.139,0.088,�k�k��,6.3,��
2019/06/23,11:40,0.188,0.167,0.284,0.266,0.262,0.141,0.087,�k�k��,7.5,��
2019/06/23,11:50,0.187,0.170,0.280,0.264,0.266,0.140,0.087,�k�k��,7.4,��
2019/06/23,12:00,0.187,0.169,0.281,0.262,0.264,0.140,0.087,�k�k��,8.2,��
2019/06/23,12:10,0.187,0.167,0.283,0.263,0.263,0.140,0.087,�k�k��,6.3,��
2019/06/23,12:20,0.186,0.168,0.281,0.266,0.261,0.141,0.087,�k�k��,6.5,��
2019/06/23,12:30,0.186,0.170,0.281,0.265,0.264,0.141,0.086,�k�k��,7.4,��
2019/06/23,12:40,0.189,0.169,0.284,0.264,0.267,0.140,0.087,�k�k��,5.4,��
2019/06/23,12:50,0.186,0.168,0.282,0.263,0.263,0.141,0.087,�k��,6.8,��
2019/06/23,13:00,0.186,0.169,0.280,0.268,0.262,0.140,0.088,�k��,6.2,��
2019/06/23,13:10,0.188,0.169,0.284,0.266,0.262,0.141,0.087,�k��,5.7,��
2019/06/23,13:20,0.188,0.169,0.284,0.264,0.265,0.142,0.087,�k�k��,6.4,��
2019/06/23,13:30,0.185,0.169,0.282,0.264,0.266,0.140,0.087,�k�k��,6.4,��
2019/06/23,13:40,0.188,0.170,0.280,0.268,0.264,0.140,0.087,�k,5.2,��
2019/06/23,13:50,0.189,0.169,0.284,0.266,0.264,0.141,0.088,�k�k��,6.0,��
2019/06/23,14:00,0.186,0.167,0.282,0.263,0.263,0.141,0.088,�k�k��,6.3,��
2019/06/23,14:10,0.188,0.170,0.280,0.265,0.268,0.142,0.087,�k�k��,5.3,��
2019/06/23,14:20,0.189,0.169,0.283,0.268,0.266,0.141,0.087,�k,4.1,��
2019/06/23,14:30,0.188,0.168,0.285,0.266,0.265,0.141,0.087,�k,5.7,��
2019/06/23,14:40,0.187,0.169,0.283,0.263,0.264,0.142,0.087,�k,5.5,��
2019/06/23,14:50,0.189,0.170,0.281,0.266,0.263,0.141,0.088,�k�k��,5.1,��
2019/06/23,15:00,0.188,0.169,0.283,0.267,0.268,0.141,0.088,�k,5.4,��
2019/06/23,15:10,0.187,0.170,0.284,0.266,0.266,0.142,0.088,�k,4.4,��
2019/06/23,15:20,0.189,0.171,0.282,0.267,0.264,0.141,0.087,�k�k��,3.3,��
2019/06/23,15:30,0.187,0.169,0.286,0.268,0.268,0.141,0.087,�k,3.9,��
2019/06/23,15:40,0.189,0.169,0.283,0.265,0.267,0.141,0.088,�k,3.8,��
2019/06/23,15:50,0.188,0.170,0.283,0.267,0.264,0.141,0.087,�k�k��,3.5,��
2019/06/23,16:00,0.188,0.169,0.285,0.267,0.266,0.142,0.087,�k,3.1,��
2019/06/23,16:10,0.189,0.170,0.282,0.266,0.267,0.141,0.088,�k,3.8,��
2019/06/23,16:20,0.188,0.170,0.284,0.269,0.264,0.141,0.088,�k,4.0,��
2019/06/23,16:30,0.188,0.168,0.285,0.267,0.266,0.142,0.088,�k,4.1,��
2019/06/23,16:40,0.188,0.170,0.283,0.265,0.267,0.141,0.088,�k,4.6,��
2019/06/23,16:50,0.187,0.170,0.285,0.269,0.264,0.141,0.087,�k,4.5,��
2019/06/23,17:00,0.189,0.170,0.284,0.265,0.269,0.143,0.088,�k,4.8,��
2019/06/23,17:10,0.188,0.168,0.283,0.269,0.266,0.140,0.087,�k,4.9,��
2019/06/23,17:20,0.189,0.171,0.284,0.267,0.265,0.141,0.088,�k,4.5,�L
2019/06/23,17:30,0.187,0.170,0.284,0.267,0.268,0.142,0.088,�k,4.6,��
2019/06/23,17:40,0.188,0.170,0.286,0.269,0.264,0.142,0.088,�k,4.8,��
2019/06/23,17:50,0.187,0.170,0.282,0.265,0.268,0.142,0.088,�k,4.2,��
2019/06/23,18:00,0.189,0.170,0.284,0.269,0.264,0.141,0.088,�k,4.5,��
2019/06/23,18:10,0.188,0.169,0.284,0.266,0.267,0.142,0.088,�k,4.4,��
2019/06/23,18:20,0.190,0.170,0.285,0.266,0.267,0.142,0.088,�k,4.9,��
2019/06/23,18:30,0.189,0.170,0.284,0.268,0.266,0.141,0.088,�k,5.1,��
2019/06/23,18:40,0.188,0.170,0.284,0.267,0.267,0.142,0.087,�k�k��,4.9,��
2019/06/23,18:50,0.190,0.171,0.284,0.268,0.265,0.141,0.088,�k�k��,4.8,��
2019/06/23,19:00,0.188,0.170,0.286,0.267,0.267,0.141,0.089,�k,3.7,��
2019/06/23,19:10,0.188,0.170,0.284,0.268,0.265,0.141,0.087,�k�k��,4.6,��
2019/06/23,19:20,0.188,0.169,0.285,0.266,0.267,0.142,0.088,�k�k��,5.0,��
2019/06/23,19:30,0.189,0.170,0.284,0.267,0.266,0.141,0.087,�k,5.5,��
2019/06/23,19:40,0.187,0.169,0.284,0.268,0.266,0.142,0.088,�k�k��,5.0,��
2019/06/23,19:50,0.190,0.169,0.286,0.266,0.266,0.143,0.088,�k�k��,5.1,��
2019/06/23,20:00,0.188,0.169,0.284,0.267,0.266,0.142,0.088,�k,4.3,��
2019/06/23,20:10,0.187,0.170,0.284,0.265,0.268,0.142,0.088,�k,5.2,��
2019/06/23,20:20,0.189,0.169,0.283,0.267,0.264,0.142,0.088,�k�k��,5.1,��
2019/06/23,20:30,0.188,0.170,0.285,0.266,0.268,0.141,0.087,�k�k��,4.8,��
2019/06/23,20:40,0.189,0.169,0.282,0.268,0.264,0.142,0.087,�k�k��,5.2,��
2019/06/23,20:50,0.188,0.172,0.286,0.266,0.266,0.140,0.087,�k�k��,4.8,��
2019/06/23,21:00,0.190,0.170,0.283,0.267,0.266,0.142,0.088,�k�k��,5.1,��
2019/06/23,21:10,0.188,0.170,0.285,0.268,0.267,0.141,0.087,�k�k��,5.3,��
2019/06/23,21:20,0.189,0.169,0.282,0.265,0.267,0.141,0.088,�k�k��,4.9,��
2019/06/23,21:30,0.188,0.170,0.285,0.267,0.266,0.141,0.088,�k��,4.8,��
2019/06/23,21:40,0.189,0.170,0.283,0.266,0.266,0.141,0.087,�k�k��,4.8,��
2019/06/23,21:50,0.187,0.170,0.285,0.267,0.265,0.141,0.088,�k�k��,4.5,��
2019/06/23,22:00,0.189,0.169,0.283,0.266,0.267,0.141,0.087,�k�k��,5.1,��
2019/06/23,22:10,0.188,0.169,0.285,0.268,0.266,0.142,0.087,�k�k��,4.4,��
2019/06/23,22:20,0.188,0.168,0.283,0.266,0.267,0.141,0.088,�k�k��,3.8,��
2019/06/23,22:30,0.188,0.170,0.285,0.268,0.265,0.142,0.088,�k�k��,5.1,��
2019/06/23,22:40,0.188,0.169,0.284,0.265,0.268,0.142,0.088,�k�k��,5.2,��
2019/06/23,22:50,0.188,0.170,0.285,0.267,0.264,0.143,0.087,�k�k��,4.3,��
2019/06/23,23:00,0.188,0.170,0.284,0.266,0.267,0.142,0.088,�k�k��,3.1,��
2019/06/23,23:10,0.188,0.170,0.284,0.266,0.266,0.141,0.087,�k�k��,3.8,��
2019/06/23,23:20,0.187,0.170,0.284,0.267,0.267,0.142,0.088,�k�k��,3.7,��
2019/06/23,23:30,0.189,0.170,0.284,0.266,0.267,0.141,0.088,�k�k��,3.9,��
2019/06/23,23:40,0.188,0.169,0.284,0.267,0.266,0.143,0.088,�k�k��,4.1,��
2019/06/23,23:50,0.189,0.170,0.285,0.267,0.267,0.142,0.088,�k�k��,3.3,��
